Pagina principale
METAR-TAF:

METAR-TAF

Aeroporti :

Bric della Croce

Torino, Italia

latitudine: 45-02N, longitudine: 007-44E, altezza: 709 m

Osservazione

Il bollettino è stato emesso 49 minuti fa, alle 17:55 UTC
Vento calmo
Temperature 0°C
Umidità 86%
Pressione 1013 hPa
Visibilità 10 km o più
Nubi sparse ad un'altezza di 1300 ft
Nubi sparse ad un'altezza di 3000 ft

METAR: LIMK 191755Z 00000KT 9999 SCT013 SCT030 M00/M02 Q1013 RMK OVC VAL FOSCHIA VIS MIN 9999

Ora: 19:44 (18:44 UTC)


TAF: mancante

Osservazioni e previsioni meteorologiche di più di 4000 aeroporti (messaggi METAR e TAF).

Le stazioni disponibili sono rappresentate dai dischi gialli e rossi sulla carta.

Puntare il mouse per vedere il nome della stazione.

Clicca sopra per visualizzare le osservazioni e previsioni meteorologiche.

Per cambiare la mappa : fare clic sui pulsanti verdi con una croce nera per ingrandire, il pulsante verde con un trattino per diminuire, o sulla freccia verde per le mappe adiacenti.


METAR-TAF: